Location: Newark
(7.5381°N, 8.4972°W)
Time: 07:25:05
(UTC+00:00)

Envisat - Visible Passes

Search period start: 25 March 2019 00:00
Search period end: 04 April 2019 00:00
Orbit: 764 x 766 km, 98.2° (Epoch: 24 March)

Date Brightness Start Highest point End Pass type
(mag) Time Alt. Az. Time Alt. Az. Time Alt. Az.
25 Mar 4.1 19:57:51 10° S 20:02:40 44° WSW 20:07:29 10° NNW visible
26 Mar 3.0 19:21:00 10° SSE 19:26:00 64° ENE 19:31:01 10° N visible
27 Mar 5.4 20:24:21 10° SSW 20:28:09 22° W 20:31:58 10° NW visible
28 Mar 3.5 19:46:28 10° S 19:51:28 61° WSW 19:56:28 10° NNW visible
29 Mar 3.3 19:09:58 10° SSE 19:14:49 46° ENE 19:19:39 10° N visible
30 Mar 4.9 20:12:36 10° SSW 20:16:57 29° W 20:21:18 10° NW visible
31 Mar 3.0 19:35:12 10° S 19:40:17 84° W 19:45:21 10° NNW visible
01 Apr 3.6 18:59:06 10° SE 19:03:39 34° ENE 19:08:11 10° NNE visible
01 Apr 5.9 20:39:54 10° SW 20:42:27 14° W 20:45:00 10° WNW visible
02 Apr 4.3 20:01:03 10° S 20:05:45 39° WSW 20:10:28 10° NNW visible
03 Apr 2.9 19:24:02 10° SSE 19:29:05 72° ENE 19:34:08 10° N visible
